Location: Mount Cross
(36.6390°N, 79.4878°W)
Time: 01:19:37
(UTC+00:00)

SR - Pass Details

Date: 29 March 2023
Orbit: 580 x 867 km, 66.7° (Epoch: 08 June)

Event Time Altitude Azimuth Distance (km) Brightness Sun altitude
Rises 16:42:43 0° 314° (NW) 2,848 ? 55.6°
Reaches altitude 10° 16:45:26 10° 297° (WNW) 1,973 ? 55.7°
Maximum altitude 16:48:34 19° 251° (WSW) 1,503 ? 55.9°
Drops below altitude 10° 16:51:50 10° 206° (SSW) 2,066 ? 56.1°
Sets 16:54:46 0° 189° (S) 3,031 ? 56.2°
